{"data":{"norad_id":46809,"epoch":"2026-05-25T05:08:24.800352Z","epoch_age_seconds":55757,"freshness":"FRESH","line1":"1 46809U 20076C   26145.21417593  .00002256  00000+0  16829-3 0  9995","line2":"2 46809  34.9954 230.8849 0006910 233.2349 126.7725 15.02559881304684","mean_motion":15.02559881,"eccentricity":0.000691,"inclination_deg":34.9954,"raan_deg":230.8849,"arg_perigee_deg":233.2349,"mean_anomaly_deg":126.7725,"bstar":0.00016829,"rev_number":30468,"period_min":95.836446733932,"perigee_km":554.21246272893,"apogee_km":563.7995943944,"semimajor_km":6937.1430285617,"source":"CELESTRAK","updated_at":"2026-05-25T13:37:56.365815Z"}}